Flag for Morocco Weather past 2 weeks in Marrakech, Morocco

Now
86 °F

Passing clouds.


Feels Like: 83 °F
Forecast: 69 / 88 °F
Wind: 3 mph from North

Location: Marrakech Airport

Current Time: Oct 21, 2014 at 11:51:14 AM

Latest Report: Oct 21, 2014 at 11:30 AM


Visibility: N/A

Pressure: 30.21 "Hg

Humidity: 17%

Dew point: 36 °F

Location of MarrakechLocation

Historic Weather in Marrakech — Graph

°F

Marrakech temperature yesterday

Maximum temperature yesterday: 97 °F (at 2:00 PM)
Minimum temperature yesterday: 64 °F (at 8:00 AM)
Average temperature yesterday: 84 °F

Past Weeks' High & Low Weather Summary

 TemperatureHumidityPressure
High97 °F (Oct 19, 3:00 PM)100% (Oct 9, 6:30 AM)30.21 "Hg (Oct 9, 6:30 AM)
Low59 °F (Oct 7, 7:00 AM)9% (Oct 20, 4:30 PM)29.83 "Hg (Oct 19, 3:00 PM)
Average74 °F56%30.02 "Hg
* Reported Oct 6 10:00 AM — Oct 21 10:30 AM, Marrakech, Weather by CustomWeather, © 2014

Note: Actual official high and low records may vary slightly from our data, if they occured in-between our weather recording intervals... More about our weather records

Advertising

Marrakech weather history for previous 24 hours

 ConditionsComfort  
Time TempWeatherWind HumidityBarometerVisibility
10:30 AM
Oct 21
82 °FSunny.2 mph17%30.21 "Hg10 mi
10:00 AM79 °FPassing clouds.3 mph21%30.21 "HgN/A
9:30 AM77 °FPassing clouds.3 mph21%30.18 "HgN/A
9:00 AM73 °FSunny.5 mph23%30.18 "Hg10 mi
8:30 AM66 °FSunny.No wind32%30.18 "Hg10 mi
8:00 AM64 °FSunny.2 mph34%30.15 "Hg10 mi
7:30 AM64 °FSunny.5 mph37%30.15 "Hg10 mi
7:00 AM64 °FSunny.3 mph37%30.12 "Hg10 mi
6:30 AM68 °FClear.No wind28%30.12 "Hg10 mi
6:00 AM68 °FClear.2 mph28%30.12 "Hg10 mi
5:30 AM70 °FClear.3 mph29%30.12 "Hg10 mi
5:00 AM68 °FClear.1 mph30%30.12 "Hg10 mi
4:00 AM68 °FClear.No wind35%30.12 "Hg10 mi
3:30 AM70 °FClear.No wind33%30.12 "Hg10 mi
3:00 AM72 °FClear.No wind27%30.12 "Hg4 mi
2:30 AM72 °FClear.No wind25%30.12 "Hg10 mi
2:00 AM75 °FClear.6 mph24%30.12 "Hg6 mi
1:30 AM75 °FClear.No wind24%30.15 "Hg10 mi
1:00 AM73 °FClear.No wind29%30.15 "Hg10 mi
12:30 AM75 °FClear.3 mph31%30.15 "Hg10 mi
12:00 AM81 °FClear.5 mph24%30.15 "Hg10 mi
11:30 PM
Oct 20
79 °FClear.No wind28%30.15 "Hg10 mi
11:00 PM82 °FPassing clouds.3 mph26%30.15 "HgN/A
10:30 PM82 °FClear.7 mph28%30.12 "Hg10 mi
10:00 PM84 °FClear.10 mph22%30.12 "Hg10 mi
9:30 PM84 °FClear.9 mph27%30.12 "Hg10 mi
9:00 PM86 °FPassing clouds.13 mph25%30.09 "HgN/A
8:30 PM88 °FPassing clouds.6 mph19%30.07 "HgN/A
8:00 PM90 °FClear.3 mph13%30.07 "Hg10 mi
7:30 PM91 °FClear.5 mph12%30.04 "Hg10 mi
7:00 PM91 °FClear.7 mph11%30.04 "Hg10 mi
6:30 PM95 °FClear.6 mph11%30.04 "Hg10 mi
6:00 PM97 °FPassing clouds.5 mph9%30.04 "HgN/A
5:30 PM97 °FSunny.9 mph10%30.01 "Hg10 mi
5:00 PM97 °FPassing clouds.9 mph10%30.01 "HgN/A
4:30 PM97 °FPassing clouds.8 mph9%30.01 "HgN/A
4:00 PM97 °FPassing clouds.6 mph10%30.01 "HgN/A
3:30 PM97 °FPassing clouds.7 mph10%30.01 "HgN/A
3:00 PM97 °FPassing clouds.7 mph10%30.01 "HgN/A
2:30 PM97 °FPassing clouds.8 mph10%30.01 "HgN/A
2:00 PM97 °FPassing clouds.7 mph11%30.04 "HgN/A
1:30 PM95 °FPassing clouds.5 mph10%30.04 "HgN/A
1:00 PM95 °FSunny.2 mph11%30.04 "Hg10 mi
12:30 PM93 °FPassing clouds.5 mph11%30.07 "HgN/A
12:00 PM93 °FPassing clouds.6 mph12%30.07 "HgN/A
11:30 AM90 °FPassing clouds.7 mph20%30.07 "HgN/A
11:00 AM88 °FPassing clouds.3 mph24%30.07 "HgN/A
Weather by CustomWeather, © 2014

See weather overviewHow to use our weather pages